SCP
0 0 0 0 0 1 1 1 1 1 1 1 1 1 1 1 1 1 1 1 1 1 1 1 1 1 1 1 1 1 1 1 1 1 1 0 0 1 1 1 0 0 0
0 0 0 1 1 1 1 1 1 1 1 1 1 1 1 1 1 1 1 1 1 1 1 1 1 1 1 1 1 1 1 1 1 1 1 1 0 1 1 1 0 0 0
1 1 1 1 1 1 1 1 1 1 1 1 1 1 1 1 1 1 1 1 1 1 0 0 0 1 1 1 1 1 1 1 1 1 1 1 0 0 1 1 1 0 0
1 1 1 1 1 1 1 1 1 1 1 1 1 1 1 1 1 1 0 0 1 1 0 0 0 1 1 1 1 1 1 1 1 1 1 0 0 0 0 1 1 1 0
1 1 1 1 1 1 1 1 1 1 1 1 1 1 1 1 1 1 1 1 1 1 1 0 0 1 1 1 1 1 1 1 1 1 0 0 0 1 1 1 1 1 1
1 1 1 1 1 1 1 1 1 1 1 1 1 1 1 1 1 1 1 1 1 1 1 1 0 1 1 1 1 1 1 1 1 1 0 0 0 1 1 1 0 0 0
1 1 1 1 1 1 1 1 1 1 1 1 1 1 1 1 1 1 1 1 1 1 1 1 0 0 1 1 1 1 1 1 1 1 0 0 0 1 1 0 0 0 0
1 1 1 1 1 1 1 1 1 1 1 1 1 1 1 1 1 1 1 1 1 1 1 1 0 0 0 0 0 0 1 1 1 0 0 0 0 0 0 0 0 0 0
0 0 0 0 1 1 1 1 1 1 1 1 1 1 1 1 1 1 1 1 1 1 1 1 0 0 0 0 0 0 0 1 1 0 0 0 0 0 0 0 0 0 1
0 0 0 0 0 0 1 1 1 1 1 1 1 1 1 1 1 1 1 1 1 1 1 1 0 0 0 0 0 0 0 0 0 0 0 0 0 0 0 0 0 1 1
0 0 0 0 0 0 0 0 0 1 1 1 1 1 1 1 1 1 1 1 1 1 1 1 0 0 0 0 0 0 0 0 0 0 0 0 0 0 0 0 1 1 0
0 0 0 0 0 0 0 0 0 0 0 0 1 1 1 1 1 1 1 1 1 1 1 1 1 1 1 0 0 0 0 0 0 0 0 0 0 0 0 1 0 0 0
0 0 0 0 0 0 0 0 0 0 0 0 0 0 0 1 1 1 1 1 1 1 1 1 1 1 1 0 0 0 0 0 0 0 0 0 1 1 0 1 0 0 0
0 0 0 0 0 0 0 0 0 0 0 0 0 0 0 0 1 1 1 1 1 1 1 1 1 1 1 1 0 0 0 0 0 0 0 0 1 1 1 1 0 0 0
0 0 0 0 0 0 0 0 0 0 0 0 0 0 0 0 0 1 1 1 1 1 1 1 1 1 1 1 0 0 0 0 0 0 0 1 1 1 1 1 1 0 0
0 0 0 0 0 0 0 0 0 0 0 0 0 0 0 0 0 1 1 1 1 1 1 1 1 1 1 1 1 0 0 0 0 0 0 1 1 1 2 1 1 1 0
0 0 0 0 0 0 0 0 0 0 0 0 0 0 0 0 0 0 1 1 0 1 1 1 1 1 1 1 1 0 0 0 0 0 0 0 1 1 1 1 1 1 1
0 0 0 0 0 0 0 0 0 0 0 0 0 0 0 0 0 0 0 0 0 1 1 1 1 1 1 1 1 0 0 0 0 0 0 0 1 1 1 1 1 1 1
0 0 0 0 0 0 0 0 0 0 0 0 0 0 0 0 0 0 0 0 0 0 1 1 1 1 1 1 1 1 0 0 0 0 0 0 0 1 1 1 1 1 1
0 0 0 0 0 0 0 0 0 0 0 0 0 0 0 0 0 0 0 0 0 0 0 0 1 1 1 1 0 0 0 0 0 0 0 0 0 0 1 1 1 1 1
0 0 0 0 0 0 0 0 0 0 0 0 0 0 0 0 0 0 0 0 0 0 0 0 0 0 0 0 0 0 0 0 0 0 0 0 0 0 0 1 1 1 1
0 0 0 0 0 0 0 0 0 0 0 0 0 0 0 0 0 0 0 0 0 0 0 0 0 0 0 0 0 0 0 0 0 0 0 0 0 0 0 0 1 1 1
0 0 0 0 0 0 0 0 0 0 0 0 0 0 0 0 0 0 0 0 0 0 0 0 0 0 0 0 0 0 0 0 0 0 0 0 0 0 0 0 1 1 1
0 0 0 0 0 0 0 0 0 0 0 0 0 0 0 0 0 0 0 0 0 0 0 0 0 0 0 0 0 0 0 0 0 0 0 0 0 0 0 0 0 1 1
0 0 0 0 0 0 0 0 0 0 0 0 0 0 0 0 0 0 0 0 0 0 0 0 0 0 0 0 0 0 0 0 0 0 0 0 0 0 0 0 0 1 1
0 0 0 0 0 0 0 0 0 0 0 0 0 0 0 0 0 0 0 0 0 0 0 0 0 0 0 0 0 0 0 0 0 0 0 0 0 0 0 0 0 0 1
Wind_Speed
3 5 10 10 9 8 7 7 6 6 6 5 5 4 4 4 5 5 5 4 4 5 5 5 5 5 6 6 6 6 6 6 5 5 5 5 6 6 6 7 7 5 9
6 6 11 11 10 8 7 6 5 5 4 4 3 3 3 2 3 3 3 3 3 3 3 3 3 4 4 4 4 4 5 5 4 3 3 3 4 4 6 7 7 5 8
8 6 8 10 9 8 7 6 5 4 3 3 3 2 2 2 2 2 1 1 1 1 2 2 2 2 2 2 3 3 4 4 4 3 1 1 2 4 5 7 7 8 8
8 5 6 9 8 7 6 5 4 4 4 3 3 3 3 3 2 2 2 2 2 1 2 1 1 0 1 1 1 2 3 4 4 3 1 1 2 5 6 6 7 7 7
6 4 5 8 7 6 5 4 4 3 4 4 4 4 5 5 5 4 4 4 3 3 3 2 2 2 1 2 2 3 4 4 5 3 1 1 2 5 6 6 6 7 7
5 3 4 8 6 5 4 3 3 3 3 4 5 5 6 6 6 6 6 6 5 5 5 4 4 3 3 3 3 4 4 5 4 1 1 2 3 6 6 6 6 6 7
4 3 4 6 5 4 4 3 4 4 4 4 5 6 7 7 8 8 8 8 8 7 6 6 5 5 5 5 5 5 5 5 2 0 1 2 4 7 7 6 6 6 6
4 3 2 3 3 4 3 3 3 4 4 5 6 6 7 7 8 9 9 10 9 9 8 7 7 6 6 6 6 6 6 6 2 0 1 3 6 8 8 7 6 6 7
3 2 1 1 1 3 3 4 4 4 5 6 7 7 8 8 9 10 10 11 11 10 10 9 9 8 8 7 7 7 7 6 2 1 2 3 7 9 8 7 6 6 6
2 2 1 0 1 2 3 5 5 6 7 7 8 8 8 9 9 10 10 11 11 11 11 11 10 10 9 9 9 9 8 6 2 2 2 4 9 9 9 8 7 6 6
2 1 1 1 1 1 2 3 5 6 7 7 7 8 8 4 5 6 8 10 11 11 11 11 11 11 10 9 9 9 7 2 2 2 2 7 10 10 10 8 7 7 7
2 1 1 1 1 1 2 2 2 3 4 4 4 4 4 3 4 6 7 9 9 10 10 11 11 10 7 3 5 7 2 3 3 3 4 10 11 11 10 9 8 8 7
2 2 2 2 2 2 2 2 2 2 3 3 4 4 3 3 3 3 2 4 4 6 4 5 5 3 2 2 2 2 3 2 2 3 4 11 12 13 12 11 10 9 8
4 3 2 3 3 3 2 2 2 2 2 2 3 4 2 2 2 2 2 3 2 2 2 3 2 3 3 3 3 3 3 2 2 2 5 12 14 13 14 13 11 10 9
4 2 2 3 3 2 2 3 3 3 3 3 2 3 2 2 2 3 2 2 3 2 2 3 3 3 3 3 3 3 2 2 3 3 3 12 14 14 14 14 13 12 10
3 2 1 2 2 2 3 3 3 3 3 3 2 3 3 1 2 2 2 2 2 2 3 3 4 3 3 2 3 2 3 2 3 3 3 6 12 13 13 14 14 13 12
3 2 1 2 3 3 4 4 3 3 3 3 3 3 4 3 2 2 2 2 2 2 2 2 3 2 3 3 3 3 2 2 2 3 3 3 5 10 12 13 13 13 13
3 2 2 3 4 4 4 4 3 3 3 3 3 3 4 4 4 2 2 2 2 1 1 2 2 2 3 3 2 2 2 2 2 3 3 4 4 5 8 12 12 13 13
4 3 2 3 3 3 4 4 4 3 3 3 3 3 4 5 5 3 2 3 2 1 1 2 1 2 2 3 3 3 3 3 3 3 3 4 4 4 4 8 12 13 13
4 4 4 3 3 3 3 3 4 4 4 3 3 3 4 4 4 4 3 4 3 2 1 1 1 1 2 2 3 3 3 3 3 3 4 3 3 5 5 5 6 9 13
4 5 4 4 2 3 2 2 3 3 3 3 3 4 5 4 4 4 4 4 4 2 2 2 1 1 1 1 0 2 2 3 4 4 3 3 4 4 5 6 5 5 6
5 5 4 3 2 2 1 0 0 1 2 2 3 4 4 4 4 4 4 4 4 3 4 3 2 1 1 0 1 0 2 2 2 3 4 4 4 3 4 6 6 7 6
5 5 4 3 3 1 1 1 2 3 3 4 4 4 4 4 4 4 4 4 4 3 3 3 2 1 1 1 1 1 1 2 2 2 2 3 4 3 4 4 6 7 7
5 5 5 4 2 1 2 2 1 1 1 2 2 3 4 4 4 4 4 4 4 3 3 3 3 1 0 1 1 1 2 2 1 3 3 2 3 4 4 5 6 6 7
5 5 4 3 2 1 1 2 1 1 1 2 2 4 4 4 4 4 3 4 4 3 3 3 3 2 1 0 1 1 1 1 2 2 3 3 2 3 4 5 4 5 6
4 4 4 3 2 2 1 1 2 1 0 2 3 3 3 3 3 4 4 4 4 3 3 3 2 3 2 1 1 1 1 1 1 2 2 2 3 3 3 4 5 5 6
Wind_Direction
169 168 148 138 133 129 125 121 117 113 110 106 102 97 93 89 86 80 79 78 78 77 72 68 66 67 67 66 62 60 62 60 61 68 78 86 89 90 93 106 107 103 107
163 161 151 144 140 137 135 132 130 127 124 124 124 121 119 113 104 96 87 81 82 84 79 72 65 63 63 65 58 49 46 46 43 48 63 85 99 104 107 114 117 115 112
142 147 149 146 143 144 144 144 146 147 151 156 163 164 166 165 153 139 130 114 107 111 104 91 70 59 56 54 42 28 20 18 11 8 30 134 140 132 124 124 124 119 118
138 145 150 147 146 149 152 156 160 167 176 187 200 207 209 213 211 205 203 201 206 190 172 168 150 28 19 13 354 349 349 350 350 345 23 192 187 153 146 137 133 131 127
129 138 150 145 144 148 156 165 175 188 198 208 217 224 227 229 230 227 224 219 220 221 215 208 210 239 264 279 295 308 321 332 343 357 69 174 177 163 154 146 142 141 140
126 134 147 143 145 149 157 175 190 203 216 227 234 236 235 233 233 231 229 226 223 225 226 223 219 229 246 260 274 289 304 317 343 11 140 180 175 168 154 149 149 147 149
144 155 158 150 151 160 177 198 213 225 236 247 252 253 249 244 239 236 232 230 227 225 227 224 222 230 239 249 260 273 288 305 325 230 203 189 183 169 157 154 159 157 153
152 160 165 170 175 188 209 225 243 251 255 260 263 264 260 256 249 242 237 232 230 228 226 224 221 227 237 245 253 261 272 284 308 328 227 196 187 169 160 156 158 161 158
142 139 159 254 281 261 261 263 269 271 275 275 274 272 270 267 262 252 243 236 232 230 228 225 222 224 232 240 248 256 264 273 282 233 228 202 192 172 164 162 163 165 160
140 140 148 243 297 297 290 282 279 276 279 281 279 275 275 273 271 265 256 244 237 234 231 228 226 226 229 235 243 251 260 273 262 234 222 207 193 174 169 170 168 165 161
86 89 111 69 349 317 295 296 294 291 293 292 287 280 279 272 273 274 267 255 244 239 235 232 230 230 231 235 241 250 259 242 235 235 213 209 193 176 173 173 169 165 162
89 63 62 50 15 352 335 329 300 293 290 285 275 273 270 263 260 265 266 262 252 244 241 235 234 236 235 225 244 257 246 234 232 233 223 212 194 180 178 178 174 170 168
123 88 67 48 24 14 342 330 313 304 297 291 284 274 267 267 266 269 265 266 264 253 242 238 232 226 217 204 215 233 232 228 221 230 226 213 197 184 182 182 178 176 175
96 90 57 48 36 18 9 337 323 316 305 297 292 296 283 274 272 266 255 251 243 235 219 219 210 221 224 214 211 226 232 227 230 224 225 217 203 192 187 185 183 182 181
100 94 47 59 47 22 11 340 349 331 316 311 312 316 307 284 282 279 266 254 245 228 219 216 216 221 227 222 223 222 234 250 250 227 228 219 207 198 191 188 188 186 185
120 104 77 77 52 33 13 347 336 336 337 346 344 336 338 327 310 298 291 273 256 235 225 217 217 216 223 223 225 214 229 243 259 237 221 220 212 202 194 192 191 190 189
138 115 88 100 57 33 10 352 351 348 356 359 353 357 2 1 345 336 333 306 279 253 230 224 228 217 221 222 221 218 219 228 244 236 221 217 214 210 203 198 195 194 194
129 95 43 60 57 37 21 6 355 355 3 359 356 0 4 4 2 359 349 325 307 295 257 230 219 223 229 228 228 229 219 223 237 234 225 222 215 213 212 206 199 197 198
130 102 80 69 61 41 26 14 4 2 6 359 2 2 3 6 8 9 352 333 334 332 309 278 223 210 225 237 239 233 221 215 220 230 227 223 217 214 209 213 206 201 201
119 97 93 71 60 43 26 15 8 6 0 359 360 360 4 3 9 13 5 353 353 0 346 324 270 225 222 233 255 253 236 221 206 212 219 223 217 220 212 211 207 209 207
100 89 88 83 58 48 33 15 8 352 341 347 350 357 2 4 10 20 11 2 3 6 352 340 311 268 260 216 249 294 280 239 221 215 206 210 218 221 213 209 206 202 208
113 107 106 104 83 66 58 326 314 311 313 320 337 353 358 5 9 21 17 8 5 7 8 3 13 12 325 144 157 218 312 315 262 220 200 207 215 211 214 214 208 205 202
127 131 129 129 116 87 45 24 12 7 356 354 348 345 344 354 5 13 14 12 10 19 6 354 9 40 326 302 209 170 190 260 311 311 233 223 212 206 212 210 209 206 206
155 149 142 143 141 122 71 59 51 29 342 306 308 324 341 355 358 5 10 11 8 10 4 349 14 359 83 303 305 240 211 194 235 319 317 266 230 219 215 218 211 206 206
161 155 155 153 163 181 118 104 85 38 294 305 335 351 353 350 348 351 0 5 1 354 352 353 356 360 358 254 272 296 308 250 197 210 281 307 296 244 221 218 213 209 206
160 155 157 162 192 217 193 121 128 134 49 20 0 348 342 336 330 336 345 352 348 347 346 346 350 355 352 336 295 245 208 227 229 213 242 268 275 268 238 216 212 210 208